Regional Weather Roundup
Issued by NWS

Home | Current Version | Previous Version | Text Only | Print | Product List | Glossary Off
Versions: 1 2 3 4 5 6 7 8 9 10 11 12 13 14 15 16 17 18 19 20 21 22 23 24 25 26 27 28 29 30 31 32 33 34 35 36 37 38 39 40 41 42 43 44 45 46 47 48 49 50

000
ASUS43 KFSD 192110
RWRSD

WEATHER ROUNDUP FOR SOUTH DAKOTA
NATIONAL WEATHER SERVICE SIOUX FALLS SD
400 PM CDT SAT APR 19 2014

NOTE: "FAIR" INDICATES FEW OR NO CLOUDS BELOW 12,000 FEET WITH NO
SIGNIFICANT WEATHER AND/OR OBSTRUCTIONS TO VISIBILITY.


SDZ001>005-009-010-012>017-192200-
NORTHWEST AND NORTH CENTRAL SOUTH DAKOTA

CITY           SKY/WX    TMP DP  RH WIND       PRES   REMARKS
BUFFALO          N/A     63  21  20 W16G28    29.92F
FAITH            N/A     65  23  20 W14       29.98F
MOBRIDGE       SUNNY     68  26  20 W13       29.93S
$$

SDZ012>016-024>037-041>051-057-063-072>074-192200-
SOUTHWEST AND SOUTH CENTRAL SOUTH DAKOTA

CITY           SKY/WX    TMP DP  RH WIND       PRES   REMARKS
RAPID CTY ARPT MOSUNNY   64  33  31 SE12G21   30.01F
PIERRE         PTSUNNY   67  21  17 SW7       29.99S
CUSTER         MOSUNNY   56  23  27 SW12      30.03F
ELLSWORTH AFB  MOSUNNY   62  26  25 SE10G22   30.00F
PHILIP         MOSUNNY   67  22  18 NE6       30.01F
PINE RIDGE     PTSUNNY   62  24  23 NE7       30.03F
SPEARFISH      FAIR      61  25  25 NE5       30.01F
WINNER         FAIR      67  20  16 CALM      30.03S
$$

SDZ004>011-016>023-039-040-192200-
NORTHEAST SOUTH DAKOTA

CITY           SKY/WX    TMP DP  RH WIND       PRES   REMARKS
ABERDEEN       MOSUNNY   69  24  18 W16G23    29.95F
WATERTOWN      MOSUNNY   65  25  22 W10       29.98F
SISSETON         N/A     68  26  20 W14G23    29.94S
$$

SDZ017-020-022-023-036>040-048>070-192200-
SOUTHEAST SOUTH DAKOTA

CITY           SKY/WX    TMP DP  RH WIND       PRES   REMARKS
SIOUX FALLS    CLOUDY    69  41  36 NW12      29.99S
HURON          MOSUNNY   69  22  16 VRB3      29.98F
CHAMBERLAIN      N/A     67  24  19 VRB5      30.01F
MITCHELL       PTSUNNY   66  26  22 N8        30.00S
YANKTON        CLOUDY    68  41  37 NW12      30.00R
$$

ABBREVIATIONS USED IN REMARKS
   TC - TEMPERATURE IN CELSIUS
  WCI - WIND CHILL INDEX
   HX - HEAT INDEX
  VSB - VISIBILITY




USA.gov is the U.S. government's official web portal to all federal, state and local government web resources and services.